Tianhe

operational
NORAD ID: 48274 Int'l Des: 2021-035 Owner: CMSEO Country: CN
LEOCIRCULAR

Tianheについて

説明を読み込み中...

リアルタイム位置

3D地球を読み込み中...

次回通過

高度履歴

Altitude vs Time

uPlot chart will show altitude changes over time

軌道要素

1 48274U 21035A 25261.12596439 .00029313 00000-0 35912-3 0 9992
2 48274 41.4645 177.1936 0003309 5.6412 354.4463 15.59705520250654
Epoch: Sep 18, 2025 • Age: 13 hours

現在のステータス

高度 389.5 km
速度 7.68 km/s
衛星直下点 24.09°N, 87.05°E
打ち上げ日 Apr 29, 2021
運用期間 4.3 years
タイプ other

技術仕様

分類 Payload
質量 21500.00 kg
乾燥質量 20838.00 kg
総質量 22500.00 kg
長さ 16.60 m
直径 4.20 m
スパン 30.00 m
形状 Step Cyl + 2 Pan
製造者 CAST
バスタイプ Tianhe
フェーズステータス In Orbit
所有者/国 CMSEO/CN

大規模コンステレーション

Loading constellations...